Tracking 26303 objects as of 1-Dec-2022
HD Live streaming from Space Station
objects crossing your sky now

COSMOS 2340

Track COSMOS 2340 now!
COSMOS 2340 is classified as:


NORAD ID: 24761
Int'l Code: 1997-015A
Perigee: 2,529.9 km
Apogee: 37,876.7 km
Inclination: 65.4 °
Period: 718.5 minutes
Semi major axis: 26574 km
RCS: 6.3095 m2 (large)
Launch date: April 9, 1997
Source: Commonwealth of Independent States (former USSR) (CIS)
Launch site: PLESETSK MISSILE AND SPACE COMPLEX (PKMTR)
aabbcc
Your satellite tracking list
Your tracking list is empty




NASA's NSSDC Master Catalog

Two Line Element Set (TLE):
1 24761U 97015A   22334.77170681  .00000620  00000-0  00000-0 0  9991
2 24761  65.4250 265.9682 6650564 165.6321 231.4055  2.00406009187870
Source of the keplerian elements: AFSPC